Volver al catálogo

AMC-16

ActivoComunicacionesGEO
NORAD 28472·PAYLOAD·🇱🇺 Luxembourg

Lanzado Dec 17, 2004 desde Cape Canaveral Space Force Station

Loading…

TLE

ActualizadoSource: Space-Track

Época: Sep 14, 2026, 08:32 UTC

1 28472U 04048A   26257.35610505 -.00000250  00000-0  00000-0 0  9994
2 28472   4.8284  75.2931 0004779 182.7720 197.2226  0.99108265 79377

Sigue AMC-16 en tiempo real con AllMySat

Download on the App Store